Weather Roundup
Issued by NWS Springfield, MO

Home | Current Version | Previous Version | Text Only | Print | Product List | Glossary On
Versions: 1 2 3 4 5 6 7 8 9 10 11 12 13 14 15 16 17 18 19 20 21 22 23 24 25 26 27 28 29 30 31 32 33 34 35 36 37 38 39 40 41 42 43 44 45 46 47 48 49 50
000
NZUS99 KSGF 040307
HRRSGF

HOURLY WEATHER
NATIONAL WEATHER SERVICE SPRINGFIELD MO
1000 PM CDT SUN MAY 03 2015

......SGF CWA......

CITY           SKY/WX    TMP DP  RH WIND       PRES   REMARKS
SPRINGFIELD    PTCLDY    66  55  67 S8        29.98R
JOPLIN         PTCLDY    68  57  68 S8        29.96R
WEST PLAINS    PTCLDY    70  53  54 S6        30.03R
ROLLA          PTCLDY    69  54  58 S8        29.97R
OSAGE BEACH    MOCLDY    72  54  53 S7        29.96R
BRANSON        PTCLDY    68  55  64 S3        30.01R

......SURROUNDING SGF CWA......

CITY           SKY/WX    TMP DP  RH WIND       PRES   REMARKS
CHANUTE        CLEAR     68  57  68 S9        29.92R
PARSONS        PTCLDY    69  57  65 S6        29.94R
COFFEYVILLE    PTCLDY    68  57  68 S8        29.93R
EMPORIA        CLEAR     70  57  63 S14       29.88R
GROVE OK       PTCLDY    70  55  60 SE3       29.98R
ROGERS AR      PTCLDY    69  55  60 S8        30.01R
SILOAM SPRINGS CLEAR     66  52  59 S7        30.00R
HARRISON AR    CLEAR     65  56  72 S6        30.02R
NEAR YELLVILLE CLEAR     70  55  60 S3        30.00R

......KANSAS AND MISSOURI......

CITY           SKY/WX    TMP DP  RH WIND       PRES   REMARKS
KANSAS CTY INT CLOUDY    73  58  59 S20G25    29.87R
DOWNTOWN KC    PTCLDY    74  57  55 S14       29.85S
COLUMBIA       PTCLDY    68  56  65 S8        29.94R
SEDALIA        CLEAR     68  56  65 S9        29.93R
ST JOSEPH      CLOUDY    75  58  55 S10       29.86R
ST LOUIS       MOCLDY    77  50  38 S10       29.97S
SPIRIT OF STL  MOCLDY    74  50  42 S6        29.95R
KIRKSVILLE     PTCLDY    73  57  57 SW13      29.88R
WICHITA        MOCLDY    71  55  56 S15       29.89R
TOPEKA         PTCLDY    75  56  51 S9        29.86R
OLATHE         CLEAR     71  58  63 S13G21    29.88R

......TENNESSEE......

CITY           SKY/WX    TMP DP  RH WIND       PRES   REMARKS
MEMPHIS        PTCLDY    68  52  56 S5        30.07R
NASHVILLE      PTCLDY    64  52  64 S5        30.13R

......ARKANSAS.......

CITY           SKY/WX    TMP DP  RH WIND       PRES   REMARKS
FAYETTEVILLE   CLEAR     66  56  70 S3        30.00R
FT SMITH       CLEAR     71  54  54 SE6       29.99R
LITTLE ROCK    PTCLDY    69  57  65 S5        30.04R

......OKLAHOMA.......

CITY           SKY/WX    TMP DP  RH WIND       PRES   REMARKS
TULSA          PTCLDY    73  55  53 S14       29.93R
PONCA CITY     PTCLDY    71  53  52 S14G21    29.91R
MCALESTER      CLEAR     69  54  58 S6        29.98R
OKLAHOMA CITY  MOCLDY    68  54  60 S14       29.93R

......IOWA............

CITY           SKY/WX    TMP DP  RH WIND       PRES   REMARKS
DES MOINES     CLOUDY    74  57  55 SE6       29.81R
QUAD CITIES    MOCLDY    74  54  49 S8        29.88R

......ILLINOIS........

CITY           SKY/WX    TMP DP  RH WIND       PRES   REMARKS
QUINCY         CLEAR     73  51  46 S14       29.89S
CHICAGO        MOCLDY    64  54  69 S13       29.92F



USA.gov is the U.S. government's official web portal to all federal, state and local government web resources and services.